EHI
0 0 0 0 0 0 0 0 0 0 0 0 0 0 0 0 0 0 0 0 0 0 0 0 0 0 0 0 0 0 0 0 0 0 0 0 0 0 0 0 0 0 0 0
0 0 0 0 0 0 0 0 0 0 0 0 0 0 0 0 0 0 0 0 0 0 0 0 0 0 0 0 0 0 0 0 0 0 0 0 0 0 0 0 0 0 0 0
0 0 0 0 0 0 0 0 0 0 0 0 0 0 0 0 0 0 0 0 0 0 0 0 0 0 0 0 0 0 0 0 0 0 0 0 0 0 0 0 0 0 0 0
0 0 0 0 0 0 0 0 0 0 0 0 0 0 0 0 0 0 0 0 0 0 0 0 0 0 0 0 0 0 0 0 0 0 0 0 0 0 0 0 0 0 0 0
0 0 0 0 0 0 0 0 0 0 0 0 0 0 0 0 0 0 0 0 0 0 0 0 0 0 0 0 0 0 0 0 0 0 0 0 0 0 0 0 0 0 0 0
0 0 0 0 0 0 0 0 0 0 0 0 0 0 0 0 0 0 0 0 0 0 0 0 0 0 0 0 0 0 0 0 0 0 0 0 0 0 0 0 0 0 0 0
0 0 0 0 0 0 0 0 0 0 0 0 0 0 0 0 0 0 0 0 0 0 0 0 0 0 0 0 0 0 0 0 0 0 0 0 0 0 0 0 0 0 0 0
0 0 0 0 0 0 0 0 0 0 0 0 0 0 0 0 0 0 0 0 0 0 0 0 0 0 0 0 0 0 0 0 0 0 0 0 0 0 0 0 0 0 0 0
0 0 0 0 0 0 0 0 0 0 0 0 0 0 0 0 0 0 0 0 0 0 0 0 0 0 0 0 0 0 0 0 0 0 0 0 0 0 0 0 0 0 0 0
0 0 0 0 0 0 0 0 0 0 0 0 0 0 0 0 0 0 0 0 0 0 0 0 0 0 0 0 0 0 0 0 0 0 0 0 0 0 0 0 0 0 0 0
0 0 0 0 0 0 0 0 0 0 0 0 0 0 0 0 0 0 0 0 0 0 0 0 0 0 0 0 0 0 0 0 0 0 0 0 0 0 0 0 0 0 0 0
0 0 0 0 0 0 0 0 0 0 0 0 0 0 0 0 0 0 0 0 0 0 0 0 0 0 0 0 0 0 0 0 0 0 0 0 0 0 0 0 0 0 0 0
0 0 0 0 0 0 0 0 0 0 0 0 0 0 0 0 0 0 0 0 0 0 0 0 0 0 0 0 0 0 0 0 0 0 0 0 0 0 0 0 0 0 0 0
0 0 0 0 0 0 0 0 0 0 0 0 0 0 0 0 0 0 0 0 0 0 0 0 0 0 0 0 0 0 0 0 0 0 0 0 0 0 0 0 0 0 0 0
0 0 0 0 0 0 0 0 0 0 0 0 0 0 0 0 0 0 0 0 0 0 0 0 0 0 0 0 0 0 0 0 0 0 0 0 0 0 0 0 0 0 0 0
0 0 0 0 0 0 0 0 0 0 0 0 0 0 0 0 0 0 0 0 0 0 0 0 0 0 0 0 0 0 0 0 0 0 0 0 0 0 0 0 0 0 0 0
0 0 0 0 0 0 0 0 0 0 0 0 0 0 0 0 0 0 0 0 0 0 0 0 0 0 0 0 0 0 0 0 0 0 0 0 0 0 0 0 0 0 0 0
0 0 0 0 0 0 0 0 0 0 0 0 0 0 0 0 0 0 0 0 0 0 0 0 0 0 0 0 0 0 0 0 0 0 0 0 0 0 0 0 0 0 0 0
0 0 0 0 0 0 0 0 0 0 0 0 0 0 0 0 0 0 0 0 0 0 0 0 0 0 0 0 0 0 0 0 0 0 0 0 0 0 0 0 0 0 0 0
0 0 0 0 0 0 0 0 0 0 0 0 0 0 0 0 0 0 0 0 0 0 0 0 0 0 0 0 0 0 0 0 0 0 0 0 0 0 0 0 0 0 0 0
0 0 0 0 0 0 0 0 0 0 0 0 0 0 0 0 0 0 0 0 0 0 0 0 0 0 0 0 0 0 0 0 0 0 0 0 0 0 0 0 0 0 0 0
0 0 0 0 0 0 0 0 0 0 0 0 0 0 0 0 0 0 0 0 0 0 0 0 0 0 0 0 0 0 0 0 0 0 0 0 0 0 0 0 0 0 0 0
0 0 0 0 0 0 0 0 0 0 0 0 0 0 0 0 0 0 0 0 0 0 0 0 0 0 0 0 0 0 0 0 0 0 0 0 0 0 0 0 0 0 0 0
0 0 0 0 0 0 0 0 0 0 0 0 0 0 0 0 0 0 0 0 0 0 0 0 0 0 0 0 0 0 0 0 0 0 0 0 0 0 0 0 0 0 0 0
0 0 0 0 0 0 0 0 0 0 0 0 0 0 0 0 0 0 0 0 0 0 0 0 0 0 0 0 0 0 0 0 0 0 0 0 0 0 0 0 0 0 0 0
0 0 0 0 0 0 0 0 0 0 0 0 0 0 0 0 0 0 0 0 0 0 0 0 0 0 0 0 0 0 0 0 0 0 0 0 0 0 0 0 0 0 0 0
0 0 0 0 0 0 0 0 0 0 0 0 0 0 0 0 0 0 0 0 0 0 0 0 0 0 0 0 0 0 0 0 0 0 0 0 0 0 0 0 0 0 0 0
Wind_Speed
4 5 4 4 5 6 7 6 6 6 6 4 3 2 2 2 2 1 1 2 3 3 4 5 5 5 5 5 5 5 5 5 5 5 5 4 4 4 3 3 3 3 3 2
3 3 3 4 5 6 7 7 8 8 8 5 4 2 2 2 2 2 2 2 2 3 3 4 5 5 5 5 5 6 5 5 5 5 5 4 4 4 4 3 3 3 2 2
2 2 2 2 3 4 3 2 4 5 6 5 4 3 2 2 1 1 1 1 1 2 3 3 4 5 6 5 6 6 5 5 5 5 5 4 4 4 3 3 3 3 2 2
3 3 1 0 3 4 2 3 4 5 6 6 5 3 3 3 3 2 2 2 1 1 1 2 3 4 5 5 6 6 5 5 5 5 5 4 4 4 3 3 3 2 2 2
2 2 2 0 3 4 3 3 7 7 8 9 6 3 4 6 5 4 3 3 2 1 1 2 3 4 5 5 5 5 5 5 6 6 6 5 5 4 3 3 2 2 2 2
3 2 1 2 5 5 3 1 8 9 9 9 8 3 4 7 6 5 5 3 3 3 3 2 2 4 4 4 4 5 5 5 5 5 5 5 5 4 3 3 3 3 2 2
4 2 1 4 6 5 2 3 7 8 8 7 5 4 5 6 6 5 5 4 4 3 3 2 2 3 3 3 3 3 4 4 5 5 5 5 4 4 4 4 4 3 3 2
2 2 1 6 5 4 4 5 6 7 7 6 5 5 5 5 5 5 5 5 4 3 3 3 3 3 2 2 2 4 4 4 4 4 4 4 4 4 4 4 4 3 3 2
1 1 2 4 4 4 5 6 6 7 7 7 6 6 5 4 4 4 4 4 3 3 3 3 2 3 2 1 3 3 3 3 3 4 4 4 5 5 4 4 4 4 3 3
3 1 3 3 4 6 6 6 7 7 7 7 6 6 5 4 3 3 4 3 3 2 2 2 2 2 2 1 2 3 3 3 4 4 4 4 4 4 4 5 4 4 4 4
3 3 4 3 6 7 7 7 8 8 7 6 6 6 5 4 3 2 2 3 2 2 1 1 1 1 1 1 1 2 2 3 3 4 4 4 4 4 5 5 5 5 5 4
2 3 4 6 6 8 8 8 8 8 8 7 6 6 6 4 3 2 2 2 2 2 1 1 1 1 1 0 1 2 2 3 3 3 3 3 3 3 5 5 7 9 7 6
2 4 5 7 7 6 7 8 7 7 7 8 7 6 5 4 3 2 2 2 2 2 2 1 1 1 0 0 1 1 2 2 2 3 3 3 4 4 3 4 7 8 10 10
3 4 5 5 6 7 7 7 7 6 6 6 5 5 4 4 3 3 2 2 2 2 2 1 1 1 1 1 1 1 2 2 2 2 3 3 3 3 3 4 3 3 7 11
2 3 5 7 7 7 6 6 7 6 6 6 5 4 4 4 4 3 3 2 2 2 1 1 2 2 1 1 2 2 2 1 1 2 2 3 3 3 3 4 4 3 2 5
4 5 5 6 7 7 7 7 7 7 6 6 5 5 4 4 4 3 2 2 2 2 2 2 2 2 2 2 2 2 2 2 2 2 2 2 3 3 3 4 4 4 4 4
4 5 5 6 7 7 7 7 7 7 6 6 5 5 4 4 4 3 2 2 2 2 2 1 2 3 3 3 2 2 2 2 3 2 2 3 3 3 3 3 4 4 4 5
4 5 5 6 7 7 7 7 6 6 6 5 5 4 4 4 4 4 3 3 3 2 1 1 2 2 3 2 2 2 2 2 2 3 2 3 3 3 3 4 4 4 4 4
4 5 6 6 5 5 6 6 5 5 5 4 4 4 4 4 4 4 3 3 3 3 2 2 4 3 3 3 3 2 2 3 3 3 2 4 4 3 3 4 4 4 4 3
4 4 5 5 5 5 5 5 5 4 4 4 4 4 4 4 4 4 3 3 2 2 2 3 3 3 3 3 4 2 3 3 3 3 2 3 3 3 3 4 4 4 4 4
4 5 5 5 6 5 5 5 5 5 4 3 4 4 4 5 4 3 3 3 2 2 3 5 3 2 2 4 5 3 3 3 3 3 3 3 3 3 3 4 4 4 4 4
5 5 6 6 6 5 4 4 4 4 4 4 4 4 4 4 4 3 3 3 2 4 3 3 2 4 6 6 3 3 3 3 3 3 3 3 3 3 4 4 4 4 4 4
5 5 6 6 6 6 5 4 4 4 4 4 4 4 4 4 3 3 3 2 2 5 4 3 5 8 9 4 3 3 3 3 3 3 3 3 3 3 3 4 3 3 3 4
5 5 6 5 4 5 6 5 4 3 4 4 4 4 4 3 3 2 2 4 6 6 4 5 8 9 7 3 2 3 3 3 3 3 3 3 3 3 3 3 3 3 3 4
5 6 6 5 5 5 5 4 4 4 4 3 4 3 3 2 2 2 2 3 5 6 3 5 8 8 4 2 3 3 3 3 3 3 3 2 3 3 3 3 3 3 3 3
5 5 5 5 4 4 3 3 3 3 3 3 3 2 2 1 2 2 2 2 4 5 4 3 3 4 2 2 3 3 3 3 4 3 3 3 3 3 3 3 4 3 3 4
5 4 4 4 4 3 3 3 3 3 3 3 3 2 1 1 1 2 2 2 2 2 3 2 2 2 2 3 3 3 3 2 3 3 3 2 2 3 3 4 3 3 4 4
Wind_Direction
285 283 266 260 256 247 241 247 262 283 291 296 310 319 329 319 297 250 206 191 176 166 161 157 153 148 143 137 133 131 129 127 125 118 114 112 110 109 107 103 101 100 95 89
283 265 262 270 271 258 255 261 268 285 292 308 325 342 323 295 272 265 241 201 176 164 158 160 156 152 146 142 137 133 134 135 130 127 125 126 126 124 121 119 113 108 105 102
289 286 279 292 286 259 260 291 291 290 303 326 331 337 344 343 358 324 279 206 168 167 166 163 160 154 155 149 137 137 141 142 140 139 139 141 139 135 137 134 123 117 116 114
292 305 254 245 13 354 334 336 336 325 335 346 349 352 12 12 24 20 27 35 44 101 148 157 148 143 143 142 144 148 151 151 149 148 148 147 145 149 145 136 136 137 132 132
296 277 253 103 7 355 344 359 14 3 358 353 345 354 17 26 31 27 32 39 35 34 86 125 138 139 138 144 147 153 161 162 159 157 156 157 159 157 149 142 145 147 144 152
289 292 300 10 352 341 325 21 18 5 357 351 352 355 2 6 15 21 26 32 33 31 48 70 105 123 137 148 152 165 166 160 155 157 161 164 164 157 150 151 159 156 160 172
267 259 300 356 332 337 352 355 357 360 358 359 1 345 331 351 9 16 19 21 28 40 50 54 78 106 126 139 158 150 136 139 147 153 156 157 156 154 153 154 155 163 174 185
279 252 269 359 6 21 349 342 356 357 354 352 346 342 346 354 4 9 15 18 22 33 39 43 61 90 107 125 122 118 127 139 148 150 154 153 153 157 158 158 164 178 184 195
285 277 2 16 24 2 354 350 348 346 342 341 338 338 339 345 356 3 11 17 21 31 34 33 45 79 103 104 107 120 135 151 158 158 159 160 164 167 167 172 180 189 192 203
291 314 356 9 13 10 360 346 337 335 334 337 330 327 327 335 348 358 2 5 11 21 32 25 31 54 94 124 133 144 162 172 173 169 171 175 175 175 180 188 193 196 199 206
277 321 336 7 4 347 339 337 335 333 330 328 320 317 318 321 334 346 350 349 357 360 0 4 20 43 64 97 138 163 178 187 184 181 180 185 188 192 197 202 198 198 204 199
292 353 321 314 329 331 328 329 329 326 324 326 321 313 315 313 321 326 328 333 331 332 339 346 356 33 74 89 175 189 195 195 190 186 187 186 190 205 213 212 214 216 214 208
312 318 301 298 312 327 323 319 318 317 316 316 316 313 311 309 315 321 323 332 320 319 319 322 328 335 13 347 250 224 222 210 197 194 195 197 194 196 210 224 227 230 229 227
325 322 303 315 319 321 316 316 314 311 313 315 318 320 318 315 317 321 324 331 322 314 307 310 310 324 354 330 285 260 240 223 215 210 207 206 204 203 201 205 218 234 232 231
335 324 301 306 310 315 317 317 314 312 317 321 322 321 322 319 315 318 327 329 320 306 312 323 313 321 341 316 293 271 254 235 220 217 219 216 209 208 211 215 222 226 221 230
312 301 295 303 308 314 317 316 312 311 315 316 318 319 319 312 307 311 321 326 315 302 305 309 310 330 331 311 297 281 262 253 240 225 222 226 219 215 219 222 226 226 227 224
300 300 304 307 307 309 309 310 308 309 313 311 312 316 314 311 308 312 320 321 309 299 299 299 311 325 316 309 300 280 274 259 242 235 226 224 227 226 226 227 232 236 237 230
275 287 293 293 295 300 304 306 306 308 311 312 314 313 310 309 309 313 320 321 310 302 311 317 321 315 307 306 305 289 271 261 250 242 238 234 236 231 228 231 236 242 248 246
287 293 299 301 299 295 296 298 300 300 304 307 309 308 308 309 308 309 312 306 298 298 315 330 327 322 306 297 301 282 269 262 259 251 244 250 249 238 236 239 242 244 245 238
295 299 301 302 301 294 293 296 298 296 301 305 303 301 303 306 308 308 305 294 285 292 321 321 314 305 304 299 306 284 272 264 261 258 249 244 247 246 244 245 245 245 244 242
291 293 293 292 289 286 284 289 291 291 296 297 293 294 297 300 301 296 292 292 300 331 327 319 313 301 299 304 303 286 276 274 268 260 254 252 251 252 251 250 253 253 251 251
278 281 283 282 283 283 280 278 278 281 286 287 286 288 292 295 297 292 276 274 302 325 326 308 302 306 309 311 292 280 272 272 274 271 265 262 259 257 256 257 257 260 259 256
277 279 278 276 276 279 281 274 270 271 275 278 281 282 280 281 282 284 291 299 314 316 317 297 305 309 312 309 290 286 281 276 273 270 267 265 267 266 263 261 261 262 261 260
280 282 278 276 275 277 277 276 270 264 264 268 266 265 270 278 279 261 268 304 310 311 306 304 312 313 315 306 291 289 288 282 278 274 270 267 265 266 264 264 265 265 263 263
275 276 276 274 271 267 267 272 272 265 262 265 266 260 253 249 260 279 286 289 300 309 308 310 316 320 321 302 296 293 290 284 283 284 275 277 276 274 271 269 268 268 265 262
271 271 268 261 258 262 265 266 266 265 263 269 269 258 254 256 265 276 281 284 292 306 309 304 307 315 312 305 304 303 302 306 309 303 293 288 282 280 280 278 275 272 271 267
269 267 269 270 260 248 247 252 260 266 262 262 270 261 251 261 272 281 286 289 296 299 298 301 305 307 307 307 306 305 303 301 301 300 297 292 287 282 282 280 278 276 275 273